Terminal Aerodrome Forecast
Issued by NWS Charleston, SC

Home | Current Version | Previous Version | Text Only | Print | Product List | Glossary On
Versions: 1 2 3 4 5 6 7 8 9 10 11 12 13 14 15 16 17 18 19 20 21 22 23
000
FTUS42 KCHS 300527
TAFSAV
TAF
KSAV 300527Z 3006/3106 30010KT P6SM VCSH SCT008 BKN035
      TEMPO 3008/3012 BKN025 OVC050
     FM301600 31009KT P6SM VCSH SCT010 BKN025
     FM301900 32009KT P6SM SCT025 BKN040
     FM310000 VRB03KT P6SM FEW035 SCT150=

USA.gov is the U.S. government's official web portal to all federal, state and local government web resources and services.